Tok, AK

6:37 PM AKST on January 23, 2017 (GMT -0900)
Northway

Weather History for PAOR - March, 2013

Change the Weather History Date:

Monday, March 18, 2013

  Actual Average Record
Temperature  
Mean Temperature -4 °F -  
Max Temperature 17 °F 24 °F 47 °F (1981)
Min Temperature -24 °F -8 °F -41 °F (1959)
Degree Days  
Heating Degree Days 69    
Moisture  
Dew Point -10 °F    
Average Humidity 69    
Maximum Humidity 84    
Minimum Humidity 49    
Precipitation  
Precipitation 0.00 in - - ()
Snow  
Snow 0.00 in - - ()
Snow Depth 14.00 in    
Sea Level Pressure  
Sea Level Pressure 30.09 in    
Wind  
Wind Speed 2 mph (NW)    
Max Wind Speed 13 mph    
Max Gust Speed 18 mph    
Visibility 10 miles    
Events Snow    
Averages and records for this station are not official NWS values.
T = Trace of Precipitation, MM = Missing Value Source: NWS Daily Summary

Daily Weather History Graph

Daily Weather History Graph

Search for Another Location

Airport or City:

Trip Planner

Search our weather history database for the weather conditions in past years. The results will help you decide how hot, cold, wet, or windy it might be!

Date:

Astronomy

Mar. 18, 2013 Rise Set
Actual Time 7:33 AM AKDT 7:38 PM AKDT
Civil Twilight 6:48 AM AKDT 8:24 PM AKDT
Nautical Twilight 5:53 AM AKDT 9:20 PM AKDT
Astronomical Twilight 4:52 AM AKDT 10:21 PM AKDT
Moon 9:44 AM AKDT (3/18) 3:40 AM AKDT (3/18)
Length of Visible Light 13h 36m
Length of Day
12h 04m
Waxing Crescent, 42% of the Moon is Illuminated
Mar 18
Waxing Crescent
Mar 19
First Quarter
Mar 27
Full
Apr 2
Last Quarter
Apr 10
New

Hourly Weather History & Observations

Time (AKDT) Temp. Windchill Dew Point Humidity Pressure Visibility Wind Dir Wind Speed Gust Speed Precip Events Conditions
12:53 AM -16.1 °F - -20.9 °F 79% 30.19 in 10.0 mi Calm Calm - N/A   Clear
1:53 AM -18.0 °F - -23.1 °F 78% 30.17 in 10.0 mi Calm Calm - N/A   Clear
2:53 AM -20.0 °F - -25.1 °F 78% 30.16 in 10.0 mi Calm Calm - N/A   Clear
3:53 AM -20.9 °F - -26.0 °F 77% 30.14 in 10.0 mi Calm Calm - N/A   Clear
4:53 AM -22.0 °F - -27.9 °F 74% 30.14 in 10.0 mi Calm Calm - N/A   Clear
5:53 AM -23.1 °F - -29.0 °F 74% 30.14 in 10.0 mi Calm Calm - N/A   Partly Cloudy
6:53 AM -24.0 °F - -29.9 °F 74% 30.12 in 10.0 mi Calm Calm - N/A   Partly Cloudy
7:53 AM -24.0 °F - -29.9 °F 74% 30.14 in 10.0 mi Calm Calm - N/A   Partly Cloudy
8:53 AM -20.0 °F - -25.1 °F 78% 30.13 in 10.0 mi Calm Calm - N/A   Partly Cloudy
9:53 AM -9.9 °F - -14.1 °F 82% 30.11 in 10.0 mi Calm Calm - N/A   Partly Cloudy
10:53 AM -0.9 °F - -11.0 °F 62% 30.09 in 10.0 mi Calm Calm - N/A   Scattered Clouds
11:53 AM 3.9 °F - -7.1 °F 60% 30.08 in 10.0 mi Calm Calm - N/A   Scattered Clouds
12:53 PM 10.9 °F 1.4 °F -4.0 °F 51% 30.06 in 10.0 mi Variable 5.8 mph - N/A   Scattered Clouds
1:53 PM 16.0 °F 2.3 °F -0.0 °F 49% 30.04 in 10.0 mi NW 12.7 mph 18.4 mph N/A   Scattered Clouds
2:53 PM 16.0 °F 3.6 °F 1.9 °F 54% 30.03 in 10.0 mi NW 10.4 mph 17.3 mph N/A   Scattered Clouds
3:53 PM 16.0 °F 5.3 °F 3.0 °F 57% 30.03 in 10.0 mi WNW 8.1 mph - N/A   Scattered Clouds
4:53 PM 15.1 °F 1.1 °F 3.0 °F 59% 30.03 in 10.0 mi NW 12.7 mph - N/A   Mostly Cloudy
5:53 PM 15.1 °F 3.3 °F 3.9 °F 61% 30.03 in 10.0 mi NW 9.2 mph - N/A   Mostly Cloudy
6:53 PM 12.9 °F 2.6 °F 3.9 °F 67% 30.03 in 10.0 mi NW 6.9 mph - N/A   Mostly Cloudy
7:53 PM 12.0 °F 2.7 °F 3.0 °F 67% 30.04 in 10.0 mi NNW 5.8 mph - N/A   Overcast
8:53 PM 10.9 °F 1.4 °F 1.9 °F 67% 30.05 in 10.0 mi NW 5.8 mph - N/A   Overcast
9:53 PM 10.0 °F 0.4 °F 3.0 °F 73% 30.04 in 8.0 mi NW 5.8 mph - N/A Snow Light Snow
10:53 PM 9.0 °F -0.9 °F 3.9 °F 80% 30.04 in 8.0 mi NW 5.8 mph - N/A Snow Light Snow
11:53 PM 7.0 °F -1.7 °F 3.0 °F 84% 30.03 in 10.0 mi NW 4.6 mph - N/A   Mostly Cloudy